Weather in Indel'

Russia / Murmansk Oblast     66°57′43″N   35°17′02″E
temp.,
°C
wind,
m/s
gust,
m/s
humid.,
%
clouds,
%
prec.,
mm/h
press.,
hPa
HPBL,
m
15 may, sat
sat1500:00+2ne51083100 0.0 1018476
03:00+1ne41087100 0.0 1018454
06:00+1ene4986100 0.0 1018442
09:00+2ene4883100 0.0 1018443
12:00+2ene3679100 0.0 1018485
15:00+4e3577100 0.0 1017486
18:00+5e3577100 0.0 1016509
21:00+4ene368282 0.0 1015396
16 may, sun
sun1600:00+3ene378887 0.0 1015306
03:00+3ene3788100 0.0 1014285
06:00+3ene488792 0.0 1013274
09:00+5ene4778100 0.0 1012409
12:00+10ene466665 0.0 1011640
15:00+13ene445777 0.0 10101100
18:00+12ene345982 0.0 10091027
21:00+9ene3769100 0.0 1010331
17 may, mon
mon1700:00+6ne3877100 0.0 1011309
03:00+4ne38815 0.0 1012229
06:00+5ne36725 0.0 1012273
09:00+10ene34615 0.0 1013532
12:00+14e225279 0.0 1013922
15:00+16s1150100 0.0 10131386
18:00+15ssw2357100 0.0 1013862
21:00+11ssw24742 0.0 1014146
18 may, tue
tue1800:00+7sse269610 0.0 1015169
03:00+5se2798100 0.0 1015212
06:00+7ese2680100 0.0 1014243
09:00+12se4765100 0.0 1013607
12:00+15se5860100 0.0 1010788
15:00+14ese4126397 0.0 1008656
18:00+12ese31290100 4.7 1004571
21:00+11s3994100 11.1 1003332
19 may, wed
wed1900:00+9s1299100 0.0 100253
03:00+9w1399100 0.1 100285
06:00+10nnw1198100 0.1 100052
09:00+10n2498100 2.1 998183
12:00+10nne4997100 11.8 998326
15:00+10nnw4997100 15.1 999364
18:00+10wnw0196100 0.2 100024
21:00+9w1196100 0.2 100010